Find Starlink 5986

NORAD ID: 56452 Int'l Des: 2023-064 Owner: SPXS Country: US Constellation: starlink operational
LEOCIRCULAR

Live Position

Loading 3D Globe...

About Starlink 5986

Description loading...

Upcoming Passes

Passes for default location (London). Set your location on the main map for personalized predictions.

Altitude History

Loading altitude history...

Two-Line Element Set

1 56452U 23064E 26126.37824308 .00000027 00000-0 10020-4 0 9995
2 56452 69.9996 359.1493 0002233 272.6170 87.4734 14.98329043163883
Epoch: May 6, 2026 • Age: 16 hours

Current Status

Altitude 595.6 km
Velocity 7.56 km/s
Sub-Earth Point -68.12°S, 7.12°E
Launch Date May 10, 2023
Age 2.9 years
Type internet

Technical Details

Classification Payload
Mass 305.00 kg
Dry Mass 290.00 kg
Total Mass 305.00 kg
Length 0.20 m
Diameter 2.80 m
Span 9.00 m
Shape Box + pan
Manufacturer SPXS
Bus Type Starlink
Phase Status In Orbit
Owner/State SPXS/US

Most Searched